Tracking 26911 objects as of 8-Feb-2023
HD Live streaming from Space Station
objects crossing your sky now

STARLINK-1620

Track STARLINK-1620 now!
10-day predictions
STARLINK-1620 is classified as:


NORAD ID: 46149
Int'l Code: 2020-057AJ
Perigee: 553.6 km
Apogee: 555.0 km
Inclination: 53.1 °
Period: 95.6 minutes
Semi major axis: 6925 km
RCS: Unknown
Launch date: August 18, 2020
Source: United States (US)
Launch site: AIR FORCE EASTERN TEST RANGE (AFETR)
Your satellite tracking list
Your tracking list is empty




NASA's NSSDC Master Catalog

Two Line Element Set (TLE):
1 46149U 20057AJ  23038.81633937  .00007948  00000-0  55170-3 0  9993
2 46149  53.0538 310.8562 0001024 112.6636 247.4461 15.06410211137928
Source of the keplerian elements: AFSPC